Powrót do katalogu

SL-12 DEB

AktywnyHEO
NORAD 25684·DEBRIS·🇷🇺 Russia

Wystrzelony Dec 24, 1985 z Baikonur Cosmodrome

Loading…

Następne Przeloty (najbliższe 24 godziny)

TLE

ŚwieżeSource: Space-Track

Epoka: Sep 12, 2026, 22:47 UTC

1 25684U 85118X   26255.94944242  .00007460  00000-0  65721-2 0  9996
2 25684  64.6726 246.1486 5221609  28.4924 352.1562  5.10913539505755

Śledź SL-12 DEB w czasie rzeczywistym z AllMySat

Download on the App Store